Regional Weather Roundup
Issued by NWS

Home | Current Version | Previous Version | Text Only | Print | Product List | Glossary On
Versions: 1 2 3 4 5 6 7 8 9 10 11 12 13 14 15 16 17 18 19 20 21 22 23 24 25 26 27 28 29 30 31 32 33 34 35 36 37 38 39 40 41 42 43 44 45 46 47 48 49 50
000
ASUS43 KDTX 240310
RWRMI
MICHIGAN HOURLY REGIONAL WEATHER ROUNDUP
NATIONAL WEATHER SERVICE DETROIT/PONTIAC MI
1100 PM EDT FRI SEP 23 2016

NOTE: "FAIR" INDICATES FEW OR NO CLOUDS BELOW 12,000 FEET WITH NO
SIGNIFICANT WEATHER AND/OR OBSTRUCTION TO VISIBILITY.

MIZ047>049-052>055-059>063-066>070-074>076-081>083-240400-
SOUTHEAST LOWER MICHIGAN

CITY           SKY/WX    TMP DP  RH WIND       PRES   REMARKS
ADRIAN         CLOUDY    66  58  75 NE9       30.15R
ALMA           CLOUDY    59  52  78 NE12      30.22S
ANN ARBOR      CLOUDY    63  55  75 N10       30.16R
BAD AXE        PTCLDY    53  49  83 NE5       30.22S
CARO           CLEAR     54  51  89 N3        30.20S
DETROIT CITY   CLOUDY    63  56  78 N10       30.16R
DETROIT        CLOUDY    64  56  75 N13       30.16R
FLINT          CLOUDY    59  52  77 NE9       30.20R
GROSSE ILE     CLOUDY    65  57  73 N13G18    30.14R
HILLSDALE      CLOUDY    63  59  88 NE5       30.15S
HOWELL         CLOUDY    60  54  80 NE7       30.18S

CITY           SKY/WX    TMP DP  RH WIND       PRES   REMARKS
JACKSON        CLOUDY    63  57  81 NE12      30.17R
LAMBERTVILLE   CLOUDY    68  57  68 NE5       30.14R
LANSING        CLEAR     59  51  75 NE12      30.20R
LAPEER         CLOUDY    58  52  79 NE8       30.19S
MASON          MOCLDY    58  55  87 NE5       30.18R
MONROE         CLOUDY    65  57  75 N6        30.13S
MT. CLEMENS    MOCLDY    59  56  87 N9        30.14R
PONTIAC        CLOUDY    60  53  77 NE10      30.17R
PORT HOPE        N/A     62  50  64 NE21      30.21S
PORT HURON     CLOUDY    61  55  82 E12       30.19R
TRI CITIES     CLOUDY    57  52  83 N6        30.23R
MIDLAND        FAIR      54  48  81 N5        30.22R
TROY           CLOUDY    63  54  71 N8        30.18S
SAGINAW HB     CLEAR     55  50  82 NE8       30.22R
$$
MIZ043>046-050>051-056>058-064>065-071>073-077>080-240400-
SOUTHWEST LOWER MICHIGAN

CITY           SKY/WX    TMP DP  RH WIND       PRES   REMARKS
BATTLE CREEK   CLOUDY    62  57  83 NE12      30.17R
BENTON HARBOR  PTCLDY    65  59  81 E7        30.14R
BIG RAPIDS     CLOUDY    59  53  79 E9        30.24R
COLDWATER      CLOUDY    65  59  82 NE5       30.15S
FREMONT        CLOUDY    61  54  76 E9        30.20R
HOLLAND        PTCLDY    61  54  77 E8        30.18R
GRAND RAPIDS   PTCLDY    58  53  84 NE9       30.19R
IONIA          CLOUDY    58  51  77 NE10      30.20R
KALAMAZOO      CLOUDY    64  56  75 VRB6      30.17R
LUDINGTON      CLOUDY    60  57  88 CALM      30.21R
MARSHALL       CLOUDY    62  57  83 NE6       30.16R
MOUNT PLEASANT CLOUDY    56  50  80 NE7       30.23R
MUSKEGON       CLOUDY    60  56  86 E6        30.19R
SOUTH HAVEN    CLOUDY    63  60  89 E8        30.15R
$$
MIZ016>042-240400-
NORTHERN LOWER MICHIGAN

CITY           SKY/WX    TMP DP  RH WIND       PRES   REMARKS
ALPENA         CLEAR     46  43  89 CALM      30.26S
BEAVER ISLAND  CLOUDY    48  47  95 CALM      30.27R
BELLAIRE       PTCLDY    52  49  89 CALM      30.26R
CADILLAC       CLOUDY    51  49  92 E6        30.24R
CHARLEVOIX     CLOUDY    54  49  82 SE5       30.29R
FRANKFORT      PTCLDY    58  53  85 E5        30.23R
GAYLORD        CLOUDY    51  46  83 CALM      30.26R
GRAYLING       CLOUDY    48  47  97 CALM      30.27R
HARBOR SPRINGS CLOUDY    50  47  89 CALM      30.26S
HOUGHTON LAKE  CLOUDY    48  45  89 E5        30.27R
MANISTEE       CLOUDY    54  52  94 E3        30.22  FOG
OSCODA         PTCLDY    57  45  63 NE14      30.24R
PELLSTON       CLOUDY    43  41  93 CALM      30.26S
ROGERS CITY    CLEAR     53  45  74 SE3       30.27R
TRAVERSE CITY  CLOUDY    58  50  75 E6        30.23R
$$
MIZ007>008-015-240400-
EASTERN UPPER MICHIGAN

CITY           SKY/WX    TMP DP  RH WIND       PRES   REMARKS
KINROSS        CLOUDY    50  47  89 CALM      30.26F
MACKINAC ISLAN CLEAR     50  50 100 CALM      30.26S
NEWBERRY       CLOUDY    49  46  90 CALM      30.27S
S. S. MARIE    CLEAR     52  47  83 E5        30.26S
MUNISING         N/A     49  46  90 CALM      30.27R
$$
MIZ004>006-011>014-085-240400-
CENTRAL UPPER MICHIGAN

CITY           SKY/WX    TMP DP  RH WIND       PRES   REMARKS
MANISTIQUE     PTCLDY    48  46  91 N5        30.26S
ESCANABA       PTCLDY    57  48  72 NE8       30.26R
MENOMINEE      MOCLDY    62  50  64 E12       30.24R
SAWYER-GWINN   MOCLDY    52  47  84 CALM      30.28R
$$
MIZ001>003-009>011-084-240400-
WESTERN UPPER MICHIGAN

CITY           SKY/WX    TMP DP  RH WIND       PRES   REMARKS
IRON MOUNTAIN  PTCLDY    54  46  74 E6        30.25S
HOUGHTON       CLOUDY    52  48  86 E6        30.26S
COPPER HARBOR    N/A     49  48  97 SW5       30.27R
IRONWOOD       MOCLDY    55  51  86 E10       30.22F
$$

ABBREVIATIONS USED IN REMARKS
   TC - TEMPERATURE IN CELSIUS
  WCI - WIND CHILL INDEX
   HX - HEAT INDEX
  VSB - VISIBILITY





USA.gov is the U.S. government's official web portal to all federal, state and local government web resources and services.